SCP
0 0 0 0 0 0 0 0 0 0 0 0 0 0 0 0 0 0 0 0 0 0 0 0 0 0 0 0 0 0 0 0 0 0 0 0 0 0 0 0 0 0 0
0 0 0 0 0 0 0 0 0 0 0 0 0 0 0 0 0 0 0 0 0 0 0 0 0 0 0 0 0 0 0 0 0 0 0 0 0 0 0 0 0 0 0
0 0 0 0 0 0 0 0 0 0 0 0 0 0 0 0 0 0 0 0 0 0 0 0 0 0 0 0 0 0 0 0 0 0 0 0 0 0 0 0 0 0 0
0 0 0 0 0 0 0 0 0 0 0 0 0 0 0 0 0 0 0 0 0 0 0 0 0 0 0 0 0 0 0 0 0 0 0 0 0 0 0 0 0 0 0
0 0 0 0 0 0 0 0 0 0 0 0 0 0 0 0 0 0 0 0 0 0 0 0 0 0 0 0 0 0 0 0 0 0 0 0 0 0 0 0 0 0 0
0 0 0 0 0 0 0 0 0 0 0 0 0 0 0 0 0 0 0 0 0 0 0 0 0 0 0 0 0 0 0 0 0 0 0 0 0 0 0 0 0 0 0
0 0 0 0 0 0 0 0 0 0 0 0 0 0 0 0 0 0 0 0 0 0 0 0 0 0 0 0 0 0 0 0 0 0 0 0 0 0 0 0 0 0 0
0 0 0 0 0 0 0 0 0 0 0 0 0 0 0 0 0 0 0 0 0 0 0 0 0 0 0 0 0 0 0 0 0 0 0 0 0 0 0 0 0 0 0
0 0 0 0 0 0 0 0 0 0 0 0 0 0 0 0 0 0 0 0 0 0 0 0 0 0 0 0 0 0 0 0 0 0 0 0 0 0 0 0 0 0 0
0 0 0 0 0 0 0 0 0 0 0 0 0 0 0 0 0 0 0 0 0 0 0 0 0 0 0 0 0 0 0 0 0 0 0 0 0 0 0 0 0 0 0
0 0 1 1 1 0 0 0 0 0 0 0 0 0 0 0 0 0 0 0 0 0 0 0 0 0 1 1 0 0 0 0 0 0 0 0 0 0 0 0 0 0 0
1 1 1 1 1 1 0 0 0 0 0 0 0 0 0 0 0 0 0 0 0 0 0 0 0 1 1 0 0 0 0 0 0 0 0 0 0 0 0 0 0 0 0
1 1 1 1 1 1 1 1 0 0 0 0 0 0 0 0 0 0 0 0 0 0 0 0 1 1 0 0 0 0 0 0 0 0 0 0 0 0 0 0 0 0 0
1 1 1 1 1 1 1 1 1 0 0 0 0 0 0 0 0 0 0 0 0 0 0 0 1 1 1 0 0 0 0 0 0 0 0 0 0 0 0 0 0 0 0
1 1 1 1 1 1 1 1 1 1 1 1 1 1 1 1 1 0 1 1 1 0 0 1 1 1 1 1 0 0 0 0 0 0 0 0 0 0 0 0 0 0 0
1 1 1 1 1 1 1 1 1 1 1 1 1 1 1 1 1 1 1 1 1 1 0 0 1 1 1 1 0 0 0 0 0 0 0 0 0 0 0 0 0 0 0
1 1 1 1 1 1 1 1 1 1 1 1 1 1 1 1 1 1 1 1 1 1 0 0 0 0 1 1 0 0 0 0 0 0 0 0 0 0 0 0 0 0 0
2 2 2 2 2 1 1 1 1 1 1 1 1 1 1 1 1 1 1 1 1 1 0 0 0 0 0 1 1 0 0 0 0 0 0 0 0 0 0 0 0 0 0
2 2 2 2 2 2 2 1 1 1 1 1 1 1 1 1 1 1 1 1 1 1 1 0 0 0 0 0 0 0 0 0 0 0 0 0 0 0 0 0 0 0 0
1 1 2 2 2 2 2 2 1 1 1 1 1 1 1 1 1 1 1 1 1 1 1 0 0 0 0 0 0 0 0 0 0 0 0 0 0 0 0 0 0 0 0
1 1 1 1 1 1 1 1 1 1 1 1 1 1 1 1 1 1 1 1 1 1 1 0 0 0 0 0 0 0 0 0 0 0 0 0 0 0 0 0 0 0 0
1 1 1 1 1 1 1 1 1 1 1 1 1 1 1 1 1 1 0 0 0 1 1 0 0 0 0 0 0 0 0 0 0 0 0 0 0 0 0 0 0 0 0
1 1 1 1 1 1 1 1 1 1 1 1 1 1 1 1 1 1 0 0 0 0 0 0 0 0 0 0 0 0 0 0 0 0 0 0 0 0 0 0 0 0 0
2 2 1 1 1 1 1 0 1 1 1 1 1 1 1 1 1 1 0 0 0 0 0 0 0 0 0 0 0 0 0 0 0 0 0 0 0 0 0 0 0 0 0
2 2 1 1 1 1 1 0 0 1 1 1 1 1 1 1 1 1 0 0 0 0 0 0 0 0 0 0 0 0 0 0 0 0 0 0 0 0 0 0 0 0 0
2 2 1 1 1 1 1 0 0 1 1 1 1 1 1 1 1 0 0 0 0 0 0 0 0 0 0 0 0 0 0 0 0 0 0 0 0 0 0 0 0 0 0
Wind_Speed
2 2 1 1 2 2 2 1 1 2 1 1 1 1 1 0 3 4 5 10 10 9 9 8 7 7 6 6 5 5 5 5 6 6 6 6 6 6 7 6 6 5 6
2 1 1 0 0 1 1 1 1 1 1 1 1 1 1 1 1 3 5 7 10 10 10 9 8 8 7 7 6 6 6 6 6 7 7 6 6 7 7 7 7 6 6
2 1 1 1 0 0 1 1 1 1 1 1 1 1 1 1 1 2 4 4 6 9 10 10 9 9 8 8 7 7 7 6 6 7 7 6 6 7 7 7 7 7 6
2 1 1 1 0 0 0 1 0 0 0 0 0 1 1 2 2 3 3 4 4 5 8 10 10 10 9 9 8 8 8 7 7 7 7 7 7 7 8 8 8 7 7
2 1 0 1 1 1 1 1 1 0 0 0 1 2 1 2 2 3 3 3 3 4 5 8 10 10 10 10 9 9 8 8 8 8 8 8 8 8 7 7 7 7 7
2 2 1 1 1 0 0 0 1 0 1 1 2 1 1 2 2 2 2 2 3 4 4 5 6 7 10 10 10 10 9 9 9 9 9 8 8 7 7 7 8 8 8
2 2 1 1 1 1 1 1 1 1 1 2 1 1 1 2 2 2 2 1 2 2 2 3 4 3 5 9 8 8 9 9 8 8 8 8 8 8 8 8 8 9 9
3 3 2 2 2 1 1 1 1 1 2 1 1 0 1 0 1 2 2 2 2 2 2 3 3 3 3 3 6 9 9 9 8 8 8 8 8 8 8 8 8 8 9
3 3 3 3 2 2 2 2 2 2 2 1 1 1 1 1 1 1 1 2 2 1 1 1 2 2 3 3 4 6 8 7 7 7 6 6 6 6 7 8 8 8 8
4 4 3 3 2 1 1 2 2 2 2 2 1 2 1 1 1 0 0 1 1 2 1 1 1 2 3 3 4 6 7 7 6 6 6 5 5 6 6 6 7 8 8
3 3 3 2 2 2 2 2 1 2 2 2 2 2 1 1 2 2 1 1 1 1 1 1 1 2 2 3 3 5 7 6 6 7 6 6 5 5 6 6 7 7 7
3 4 4 3 3 3 2 2 2 2 2 2 2 2 1 1 2 2 2 2 2 2 1 1 1 1 2 3 4 6 8 7 6 6 6 6 5 5 5 5 6 6 6
3 4 4 3 3 3 3 2 2 2 3 3 3 2 2 2 2 1 1 2 1 1 1 2 2 2 1 2 2 6 7 8 7 6 6 5 5 5 5 5 5 5 5
3 3 4 4 4 4 4 3 3 3 3 3 4 3 3 2 2 2 2 2 2 2 2 2 1 2 1 2 3 6 5 8 7 7 6 6 5 5 5 5 4 4 4
3 4 4 4 4 4 4 3 3 3 3 3 4 4 3 3 2 2 2 2 2 2 2 2 1 2 2 2 5 3 3 6 8 7 7 6 6 5 5 5 4 4 4
3 3 4 4 4 4 4 4 4 4 4 4 3 3 3 3 2 2 2 2 2 2 3 2 1 2 2 2 5 3 3 5 7 8 8 8 7 7 6 5 5 5 4
3 3 3 4 4 4 4 4 5 4 4 4 4 4 4 3 3 2 2 2 2 2 2 2 1 1 2 2 2 2 3 4 4 8 9 9 8 7 6 5 4 4 4
4 4 4 4 5 5 4 5 5 5 4 5 5 4 4 4 4 3 2 3 2 2 2 3 2 2 2 2 3 3 3 3 3 6 9 10 9 8 7 6 5 4 4
4 4 4 5 5 4 5 5 5 5 5 5 5 4 4 3 4 3 3 3 2 3 2 2 3 2 1 1 1 2 2 2 3 4 6 8 9 8 7 7 6 5 4
4 4 5 4 4 5 5 5 5 5 4 4 4 4 3 3 3 3 3 2 2 2 2 2 2 2 2 2 2 2 2 2 2 2 2 3 6 8 7 7 6 5 5
5 4 4 4 5 5 4 4 4 5 4 4 4 3 3 2 2 2 2 2 2 2 2 2 2 2 2 1 2 2 2 2 2 2 1 2 2 3 4 5 6 6 6
3 3 4 4 4 4 3 3 3 4 4 4 4 3 2 2 2 2 2 2 2 2 2 2 2 2 2 2 2 2 2 2 2 1 1 2 2 2 3 3 7 8 7
3 3 3 3 3 3 3 2 3 3 3 3 3 2 3 2 2 2 1 1 0 2 3 3 3 3 3 3 2 2 3 3 3 2 2 2 2 2 2 3 7 9 8
3 3 3 3 2 2 1 1 2 3 3 2 2 2 2 2 1 1 1 1 1 1 2 2 2 2 2 2 3 4 4 4 3 2 2 2 2 1 1 2 7 8 8
2 3 3 2 2 1 1 1 2 2 2 2 2 2 2 2 1 2 2 1 1 1 1 1 0 1 2 2 2 1 2 2 2 2 1 1 1 1 1 2 4 7 7
2 2 2 2 2 2 2 2 3 2 1 1 1 1 2 2 3 3 3 2 2 2 1 1 1 2 2 3 3 3 3 2 2 1 0 1 1 1 1 1 2 3 4
Wind_Direction
119 130 127 158 178 166 168 197 194 158 179 206 225 191 204 158 146 140 148 168 171 178 182 187 188 188 189 190 192 193 194 197 192 187 192 194 194 191 194 195 198 204 204
103 110 136 156 147 131 160 182 189 153 190 195 234 213 194 204 154 151 157 171 180 186 190 192 194 196 199 200 202 203 205 203 192 192 195 196 199 200 201 201 203 205 205
120 136 152 162 252 208 172 207 219 180 195 192 208 219 192 180 164 154 160 170 179 191 194 196 198 201 205 205 209 213 209 205 200 201 200 201 203 205 206 209 208 209 210
136 149 170 174 171 222 171 200 205 332 35 49 219 251 175 158 174 181 193 180 172 178 191 198 201 204 205 206 209 215 213 207 206 209 207 206 207 210 212 215 214 214 213
146 165 189 178 182 205 204 221 110 88 317 268 235 212 202 174 186 201 191 178 167 164 172 190 201 204 203 205 208 213 213 210 209 211 211 210 210 213 213 215 215 215 216
168 186 179 176 179 175 169 93 99 186 252 249 255 211 202 203 189 191 189 176 161 174 178 178 191 206 208 210 210 214 215 213 209 210 212 213 215 215 216 218 221 220 219
179 197 208 162 199 201 196 197 172 230 241 243 262 287 229 205 184 177 181 174 163 173 174 169 185 190 194 206 207 208 211 212 209 211 213 216 219 219 219 220 224 224 221
191 198 211 201 202 194 204 217 218 241 249 242 248 288 307 307 257 189 170 183 183 171 190 186 187 183 175 173 191 202 208 209 209 208 210 217 222 222 223 224 227 225 224
200 216 199 215 213 203 203 208 219 223 241 249 233 210 218 227 294 227 195 165 154 159 187 208 175 167 164 153 163 187 195 200 206 211 211 216 221 221 225 228 230 229 227
202 211 206 215 226 233 220 220 207 233 236 252 249 237 220 196 188 234 269 170 171 195 208 225 164 150 160 149 136 148 173 189 202 210 215 218 221 220 220 227 231 230 229
207 214 201 206 210 229 238 232 240 240 240 252 256 255 242 233 224 204 228 236 258 235 201 203 181 162 155 142 146 152 159 178 193 202 210 217 221 221 223 232 237 238 237
209 209 202 199 211 224 232 223 226 235 248 264 275 275 257 229 227 220 220 219 218 241 228 195 191 159 164 154 163 163 164 171 181 190 200 210 215 217 224 233 238 243 245
212 207 202 192 209 219 228 227 229 234 232 241 250 258 262 257 247 229 214 231 243 239 224 220 196 179 188 146 155 159 163 171 177 184 191 199 208 217 224 229 236 241 247
220 198 185 191 203 213 225 216 224 228 221 234 248 249 256 264 258 235 217 209 238 248 223 222 187 176 174 151 161 167 165 178 183 187 190 197 205 213 218 221 226 237 245
223 201 196 199 205 216 225 221 232 234 227 232 239 241 243 248 248 247 235 215 219 253 258 224 201 186 173 152 155 173 163 175 184 190 195 201 202 206 212 217 218 226 238
233 217 206 211 209 217 226 227 231 231 227 233 232 235 250 247 241 243 243 245 236 233 264 260 224 186 170 176 160 174 173 177 190 194 196 202 204 206 209 212 218 220 227
242 230 221 217 215 221 223 225 236 233 234 239 243 235 237 247 246 248 252 249 237 230 254 276 267 173 163 181 171 198 198 197 198 197 198 200 204 203 201 204 206 213 222
234 234 224 224 225 224 225 227 235 237 233 237 242 242 242 241 237 247 250 252 244 231 232 258 262 240 229 201 190 219 231 222 208 201 198 198 202 201 199 203 202 206 216
236 237 228 227 231 232 230 232 233 239 239 237 239 242 241 241 243 242 242 246 250 250 228 241 255 250 247 216 198 242 259 246 252 216 198 197 201 199 197 198 198 201 209
235 241 243 239 239 239 237 236 236 239 243 244 242 246 247 243 243 246 242 244 253 249 237 236 245 249 244 223 194 222 255 245 254 241 207 191 195 197 193 195 193 192 197
240 236 242 245 246 246 244 237 240 238 238 247 246 238 233 207 201 227 253 250 247 240 240 238 241 244 248 240 231 243 246 258 256 233 198 207 188 186 197 201 196 192 194
248 242 240 243 247 252 253 225 226 242 235 236 243 237 211 190 181 180 230 254 243 234 237 236 247 242 241 243 243 243 240 247 257 238 208 225 183 182 200 194 191 191 194
244 242 245 242 246 265 275 229 210 232 241 234 232 224 229 196 169 160 168 166 248 260 242 237 244 248 239 231 222 239 250 258 256 243 222 229 199 201 202 183 180 187 189
252 240 244 244 242 259 261 226 224 216 232 228 220 218 206 192 210 155 198 216 220 267 252 214 222 234 234 235 222 222 232 251 254 251 212 227 218 210 192 166 177 181 184
244 243 240 240 241 245 194 194 207 222 218 228 221 209 200 180 191 176 188 191 207 279 346 75 138 231 241 252 239 216 224 220 246 241 224 211 219 213 197 186 175 180 189
231 240 236 224 219 222 195 182 195 217 220 233 224 194 197 195 190 180 199 205 221 244 239 256 275 258 234 226 213 204 211 222 240 248 212 228 234 193 216 189 161 178 195